Powrót do katalogu

KUIPER-00077

AktywnyŁącznośćLEO
NORAD 64824·PAYLOAD·🇺🇸 United States

Wystrzelony Jul 16, 2025 z Cape Canaveral Space Force Station

Loading…

Następne Przeloty (najbliższe 24 godziny)

TLE

ŚwieżeSource: CelesTrak SupGP

Epoka: Sep 14, 2026, 16:57 UTC

1 64824C 25151J   26257.70694444 -.00009298  00000+0 -12172-2 0  2579
2 64824  51.9002 182.2894 0001079  77.7527 259.4139 14.79937021    16

Śledź KUIPER-00077 w czasie rzeczywistym z AllMySat

Download on the App Store